Regional Weather Roundup
Issued by NWS Goodland, KS

Home | Current Version | Previous Version | Graphics & Text | Print | Product List | Glossary On
Versions: 1 2 3 4 5 6 7 8 9 10 11 12 13 14 15 16 17 18 19 20 21 22 23 24 25 26 27 28 29 30 31 32 33 34 35 36 37 38 39 40 41 42 43 44 45 46 47 48 49 50
000
ASUS43 KGLD 261859
RWRGLD

GOODLAND FORECAST AREA HOURLY WEATHER ROUNDUP
NATIONAL WEATHER SERVICE GOODLAND KS
100 PM MDT TUE JUL 26 2016

...OFFICIAL OBSERVATIONS...

CITY           SKY/WX    TMP DP  RH WIND       PRES   REMARKS
GOODLAND KS    SUNNY     84  67  56 S16G22    30.08F
HILL CITY KS   SUNNY     87  67  51 SE9       30.05F
IMPERIAL NEB   SUNNY     89  61  38 S15G23    30.04F
MCCOOK NEB     SUNNY     90  65  43 S16       30.03F
AKRON CO       SUNNY     90  53  28 SW5       30.10F
BURLINGTON CO  SUNNY     87  64  46 S18       30.10F
LIMON CO       NOT AVBL
$$

...UNOFFICIAL OBSERVATIONS...

CITY           SKY/WX    TMP DP  RH WIND       PRES   REMARKS
LENORA KS        N/A     85  32  15 MISG        N/A
SHARON SPRINGS   N/A     85  72  65 S13G20      N/A
KIT CARSON CO    N/A     86  64  47 MISG        N/A
YUMA CO          N/A     88  63  42 S12         N/A
$$




USA.gov is the U.S. government's official web portal to all federal, state and local government web resources and services.